Location: Sternwarte ZA, Rosenfeld-Brittheim
(48.2889°N, 8.6789°E)
Time: 05:48:47
(UTC+02:00)

ISS - Pass Details

Date: 25 September 2020
Orbit: 419 x 420 km, 51.6° (Epoch: 21 September)

Event Time Altitude Azimuth Distance (km) Brightness Sun altitude
Rises 22:32:47 0° 291° (WNW) 2,371 1.1 -31.3°
Reaches altitude 10° 22:34:54 10° 293° (WNW) 1,505 -0.2 -31.5°
Enters shadow 22:35:02 11° 293° (WNW) 1,448 -0.3 -31.6°
